TimePST,TemperatureF,Dew PointF,Humidity,Sea Level PressureIn,VisibilityMPH,Wind Direction,Wind SpeedMPH,Gust SpeedMPH,PrecipitationIn,Events,Conditions,WindDirDegrees,DateUTC
12:53 AM,42.1,41.0,96,30.29,10.0,Calm,Calm,-,N/A,,Clear,0,2012-11-15 08:53:00
1:53 AM,43.0,41.0,93,30.28,10.0,Variable,3.5,-,N/A,,Partly Cloudy,0,2012-11-15 09:53:00
2:53 AM,43.0,42.1,97,30.26,10.0,Calm,Calm,-,N/A,,Overcast,0,2012-11-15 10:53:00
3:53 AM,44.1,42.1,93,30.24,10.0,Variable,3.5,-,N/A,,Overcast,0,2012-11-15 11:53:00
4:37 AM,44.6,42.8,93,30.23,7.0,Variable,4.6,-,N/A,,Mostly Cloudy,0,2012-11-15 12:37:00
4:44 AM,44.6,42.8,93,30.23,6.0,North,8.1,-,N/A,,Mostly Cloudy,360,2012-11-15 12:44:00
4:53 AM,44.1,42.1,93,30.22,4.0,North,8.1,-,N/A,,Overcast,350,2012-11-15 12:53:00
5:53 AM,43.0,41.0,93,30.21,4.0,Variable,3.5,-,N/A,,Overcast,0,2012-11-15 13:53:00
6:53 AM,42.1,41.0,96,30.19,4.0,North,5.8,-,N/A,,Overcast,360,2012-11-15 14:53:00
7:42 AM,42.8,41.0,93,30.18,4.0,Calm,Calm,-,N/A,,Overcast,0,2012-11-15 15:42:00
7:53 AM,43.0,41.0,93,30.19,4.0,Calm,Calm,-,N/A,,Overcast,0,2012-11-15 15:53:00
8:53 AM,43.0,39.9,89,30.18,6.0,Calm,Calm,-,N/A,,Overcast,0,2012-11-15 16:53:00
9:53 AM,43.0,39.9,89,30.15,7.0,North,4.6,-,N/A,,Overcast,350,2012-11-15 17:53:00
10:53 AM,43.0,39.9,89,30.12,8.0,North,3.5,-,N/A,,Overcast,360,2012-11-15 18:53:00
11:34 AM,44.6,39.2,81,30.10,10.0,North,3.5,-,N/A,,Overcast,10,2012-11-15 19:34:00
11:53 AM,46.0,39.9,79,30.09,10.0,North,3.5,-,N/A,,Mostly Cloudy,10,2012-11-15 19:53:00
12:12 PM,44.6,39.2,81,30.07,10.0,Calm,Calm,-,N/A,,Scattered Clouds,0,2012-11-15 20:12:00
12:19 PM,44.6,39.2,81,30.07,10.0,NNW,4.6,-,N/A,,Mostly Cloudy,330,2012-11-15 20:19:00
12:53 PM,45.0,39.9,82,30.06,10.0,NNW,4.6,-,N/A,,Mostly Cloudy,340,2012-11-15 20:53:00
1:30 PM,46.4,39.2,76,30.06,10.0,Variable,4.6,-,N/A,,Scattered Clouds,0,2012-11-15 21:30:00
1:53 PM,46.0,39.9,79,30.05,10.0,North,5.8,-,N/A,,Scattered Clouds,360,2012-11-15 21:53:00
2:53 PM,46.0,39.9,79,30.04,10.0,Calm,Calm,-,N/A,,Clear,0,2012-11-15 22:53:00
3:53 PM,45.0,39.0,80,30.02,10.0,Calm,Calm,-,N/A,,Clear,0,2012-11-15 23:53:00
4:53 PM,39.9,37.9,93,30.01,10.0,Calm,Calm,-,N/A,,Clear,0,2012-11-16 00:53:00
5:53 PM,37.9,36.0,93,29.99,8.0,Calm,Calm,-,N/A,,Clear,0,2012-11-16 01:53:00
6:53 PM,37.0,36.0,96,29.99,6.0,Calm,Calm,-,N/A,,Clear,0,2012-11-16 02:53:00
7:39 PM,37.4,35.6,93,29.98,6.0,Calm,Calm,-,N/A,,Mostly Cloudy,0,2012-11-16 03:39:00
7:53 PM,37.0,37.0,100,29.98,7.0,Calm,Calm,-,N/A,,Overcast,0,2012-11-16 03:53:00
8:53 PM,39.9,39.0,97,29.97,7.0,NNW,3.5,-,N/A,,Overcast,340,2012-11-16 04:53:00
9:53 PM,37.9,37.0,97,29.97,7.0,Calm,Calm,-,N/A,,Overcast,0,2012-11-16 05:53:00
10:53 PM,37.9,37.0,97,29.95,7.0,Calm,Calm,-,N/A,,Overcast,0,2012-11-16 06:53:00
11:53 PM,41.0,39.0,93,29.95,7.0,Calm,Calm,-,N/A,,Overcast,0,2012-11-16 07:53:00